カタログに戻る

COSMOS 2251 DEB

運用中LEO
NORAD 34273·DEBRIS·🇷🇺 Russia

打ち上げ Jun 16, 1993 から Plesetsk Cosmodrome

Loading…

次のパス (今後24時間)

TLE

最新Source: Space-Track

元期: Sep 14, 2026, 19:46 UTC

1 34273U 93036LT  26257.82412787  .00002165  00000-0  42543-3 0  9996
2 34273  74.0327 278.5580 0016284 320.5093 213.8183 14.63221335926577

AllMySatでCOSMOS 2251 DEBをリアルタイム追跡

Download on the App Store